Regional Weather Roundup
Issued by NWS

Home | Current Version | Previous Version | Text Only | Print | Product List | Glossary On
Versions: 1 2 3 4 5 6 7 8 9 10 11 12 13 14 15 16 17 18 19 20 21 22 23 24 25 26 27 28 29 30 31 32 33 34 35 36 37 38 39 40 41 42 43 44 45 46 47 48 49 50
000
ASUS44 KFWD 010415
RWRTX
NORTH TEXAS HOURLY WEATHER ROUNDUP
NATIONAL WEATHER SERVICE FORT WORTH TX
1100 PM CDT THU JUL 31 2014

NOTE: "FAIR" INDICATES FEW OR NO CLOUDS BELOW 12,000 FEET WITH NO
SIGNIFICANT WEATHER AND/OR OBSTRUCTIONS TO VISIBILITY.

TXZ118-119-010500-
DALLAS/FORT WORTH METROPLEX

CITY           SKY/WX    TMP DP  RH WIND       PRES   REMARKS
DFW AIRPORT    CLOUDY    71  65  81 NE14      30.02R
DALLAS LOVE    CLOUDY    72  65  78 NE9       30.02R
FTW MEACHAM    MOCLDY    72  64  78 NE7       30.04R
DAL-EXECUTIVE  CLOUDY    72  65  78 N7        30.02R
FTW-ALLIANCE   PTCLDY    69  65  86 NE8       30.03R
FTW-NAS-JRB    PTCLDY    73  64  73 N13       30.08R
ARLINGTON      CLOUDY    72  64  76 N9        30.02R
GRAND PRAIRIE  CLOUDY    71  64  78 N9        30.03R
ADDISON        CLOUDY    71  64  79 N7        30.05R
MESQUITE       CLOUDY    69  67  92 N6        30.02R
LANCASTER      CLOUDY    70  64  81 N6        30.02R
$$

TXZ091>094-102>105-117-120-121-131>134-010500-
NORTH CENTRAL TEXAS

CITY           SKY/WX    TMP DP  RH WIND       PRES   REMARKS
SHRMAN/DENISON CLOUDY    69  66  91 NE6       30.05R
GAINESVILLE    CLOUDY    68  65  90 N6        30.07R
BOWIE          PTCLDY    68  65  91 N3        30.07R
BRIDGEPORT     CLEAR     68  63  84 N3        30.07R
DECATUR        CLEAR     66  65  95 N5        30.05R
DENTON         CLOUDY    70  65  84 NE7       30.03R
MCKINNEY       CLOUDY    70  66  87 NE10      30.02R
GREENVILLE     CLOUDY    68  64  88 NE7       30.02R
ROCKWALL       CLOUDY    68  67  98 NE8       30.02R
TERRELL        CLOUDY    71  69  93 NE10      30.01R
WAXAHACHIE     CLOUDY    70  64  81 N7        30.03R
CLEBURNE       CLOUDY    72  66  83 N9        30.05R
GRANBURY       PTCLDY    71  64  78 CALM      30.06R
$$

TXZ083>090-098>101-113>116-127>130-139>142-154-155-010500-
WESTERN NORTH TEXAS

CITY           SKY/WX    TMP DP  RH WIND       PRES   REMARKS
WICHITA FALLS  PTCLDY    70  66  87 CALM      30.07R
WF-KICKAPOO    MOCLDY    72  67  85 CALM      30.09R
VERNON         MOCLDY    71  65  79 CALM      30.10R
ABILENE        CLOUDY    76  63  64 NE5       30.10R
BRECKENRIDGE   CLOUDY    76  64  67 NE6       30.07R
GRAHAM         CLOUDY    73  65  77 CALM      30.05R
MINERAL WELLS  CLEAR     69  65  86 NE5       30.04R
STEPHENVILLE   MOCLDY    71  63  76 N3        30.09R
COMANCHE       CLOUDY    74  64  69 NE6       30.07R
BROWNWOOD      CLOUDY    75  64  69 NE5       30.07R
COLEMAN        CLEAR     73  62  67 N3        30.08R
BRADY          CLEAR     73  63  68 NE7       30.07R
$$

TXZ143>147-156>162-174-175-010500-
CENTRAL TEXAS

CITY           SKY/WX    TMP DP  RH WIND       PRES   REMARKS
WACO           MOCLDY    75  65  70 N13       30.01R
WACO-TSTC      CLOUDY    75  64  69 N9G16     30.00R
WACO-MCGREGOR  CLEAR     73  63  68 N8        30.03R
HILLSBORO      CLOUDY    73  65  76 N6        30.03R
CORSICANA      CLOUDY    72  69  90 NW7       30.01R FOG
MEXIA          CLOUDY    73  68  83 N7        30.00R
HEARNE         CLEAR     76  67  72 N6        29.98R
CAMERON        CLEAR     76  66  71 N6        29.98F
TEMPLE         CLEAR     73  61  64 NW8       30.00R
KILLEEN        NOT AVBL
KILLEEN-SKYLRK CLEAR     73  61  64 N10       30.02R
FORT HOOD      CLEAR     77  65  66 N8        30.02R
GATESVILLE     CLEAR     73  64  73 N7        30.05R
HAMILTON       CLEAR     73  64  73 N8        30.07R
LAMPASAS       CLEAR     76  68  78 N6        30.04R
$$

TXZ095>097-106>112-122>126-135>138-148>153-164>167-010500-
EAST TEXAS

CITY           SKY/WX    TMP DP  RH WIND       PRES   REMARKS
PARIS          CLOUDY    66  63  88 E10       30.03R
SULPHUR SPRNGS CLOUDY    69  68  98 NE7       30.03R FOG
CLARKSVILLE    CLOUDY    69  68  98 NE7       30.03R
MOUNT PLEASANT CLOUDY    69  69  98 E6        30.02R
GILMER         RAIN      70  70 100 E7        30.01R
MINEOLA        CLOUDY    72  72 100 CALM      30.00R FOG
TYLER          CLOUDY    72  69  90 NE6       29.97R
LONGVIEW       CLOUDY    71  69  93 NE7       29.96S
MARSHALL       CLOUDY    73  71  92 NE5       30.00R
ATHENS         CLOUDY    72  70  94 NE5       29.98R FOG
JACKSONVILLE   CLOUDY    75  73  95 W3        29.99R
HENDERSON      CLOUDY    75  74  99 E3        29.96S
LUFKIN         CLOUDY    75  71  87 SW3       29.96R
$$

SUPPLEMENTAL OBSERVATIONS (CENTRAL)

CITY           SKY/WX    TMP DP  RH WIND       PRES   REMARKS
LAKE TEXOMA      N/A     66  66 100 NE5         N/A
CADDO GRASSLND   N/A     66  64  94 NE3         N/A
PAT MAYSE LAKE   N/A     66  64  94 VRB6        N/A
GREENVILLE       N/A     68  64  88 NE8         N/A
CEDAR HILL       N/A     72  66  83 NE7         N/A
ATHENS           N/A     72  68  88 NE2         N/A
MCGREGOR         N/A     73  64  73 N2G10       N/A
TEMPLE           N/A     75  64  69 N2G10       N/A
$$

SUPPLEMENTAL OBSERVATIONS (WEST)

CITY           SKY/WX    TMP DP  RH WIND       PRES   REMARKS
LBJ GRASSLAND    N/A     66  63  88 N6          N/A
GRANBURY         N/A     70  63  78 N5          N/A
HAMBY            N/A     73  63  68 NE3         N/A
IVIE RESERVOIR   N/A    N/A N/A N/A N6          N/A
COLORADO BEND    N/A     73  63  68 NE3         N/A
$$

SUPPLEMENTAL OBSERVATIONS (EAST)

CITY           SKY/WX    TMP DP  RH WIND       PRES   REMARKS
CLARKSVILLE      N/A     66  64  94 E6          N/A
CADDO LAKE       N/A     70  68  94 NE2         N/A
GILMER           N/A     70  66  88 E5G15       N/A
HENDERSON        N/A     75  72  88 CALM        N/A
LUFKIN           N/A     73  72  94 MISG        N/A
S SABINE NF      N/A     75  70  83 SW1         N/A
$$

SUPPLEMENTAL OBSERVATIONS ARE A COLLECTION OF AUTOMATED INSTRUMENTS
THAT ARE MAINTAINED BY A VARIETY OF FEDERAL AND STATE AGENCIES.
CERTAIN ELEMENTS...SUCH AS HUMIDITY VALUES AND SUSTAINED WIND
SPEEDS...MAY BE APPROXIMATED.



USA.gov is the U.S. government's official web portal to all federal, state and local government web resources and services.